User: anonymous   Login
Location: Unspecified
(0.0000°N, 0.0000°E)
Time: 04:57:40
(UTC+01:00)
Language:

SJ-6B - Orbit

View from above orbital plane
View from above orbital plane
View from above satellite
View from above satellite

Ground track
Ground track

The orbit data is extracted from the following two-line orbital elements,

1 28415U 04035C   15030.12749731  .00004127  00000-0  29600-3 0  4028
2 28415 097.7964 041.2994 0055340 183.7031 176.3792 15.03687452567838
Epoch (UTC): 30 January 2015 03:03:35
Eccentricity: 0.0055340
inclination: 97.7964°
perigee height: 517 km
apogee height: 594 km
right ascension of ascending node: 41.2994°
argument of perigee: 183.7031°
revolutions per day: 15.03687452
mean anomaly at epoch: 176.3792°
orbit number at epoch: 56783

The dashed part of the orbit path shows where the satellite is in the earth's shadow,  

DLR